Change the Weather History Date:

Thursday, March 13, 2014

  Actual Average Record
Temperature  
Mean Temperature 51 °F 46 °F  
Max Temperature 70 °F 57 °F 84 °F (1916)
Min Temperature 32 °F 34 °F 11 °F (1950)
Degree Days  
Heating Degree Days 14 19  
Month to date heating degree days 277  
Since 1 July heating degree days 3917  
Cooling Degree Days 0 0  
Month to date cooling degree days 0  
Year to date cooling degree days 0  
Growing Degree Days 1 (Base 50)    
Moisture  
Dew Point 20 °F    
Average Humidity 34    
Maximum Humidity 64    
Minimum Humidity 7    
Precipitation  
Precipitation 0.00 in 0.09 in 1.96 in (1922)
Month to date precipitation 0.99  
Year to date precipitation 3.00  
Snow  
Snow 0.00 in 0.10 in 3.00 in (1937)
Month to date snowfall 1.1  
Since 1 July snowfall 13.5  
Snow Depth -    
Sea Level Pressure  
Sea Level Pressure 30.04 in    
Wind  
Wind Speed 11 mph (SW)    
Max Wind Speed 23 mph    
Max Gust Speed 33 mph    
Visibility 10 miles    
Events      
T = Trace of Precipitation, MM = Missing Value Source: NWS Daily Summary

Daily Weather History Graph

Daily Weather History Graph

Search for Another Location

Airport or City:

Trip Planner

Search our weather history database for the weather conditions in past years. The results will help you decide how hot, cold, wet, or windy it might be!

Date:

Astronomy

Mar. 13, 2014 Rise Set
Actual Time 7:43 AM CDT 7:35 PM CDT
Civil Twilight 7:17 AM CDT 8:01 PM CDT
Nautical Twilight 6:47 AM CDT 8:31 PM CDT
Astronomical Twilight 6:16 AM CDT 9:02 PM CDT
Moon 5:04 PM CDT (3/13) 5:48 AM CDT (3/13)
Length of Visible Light 12h 43m
Length of Day
11h 51m
Waxing Gibbous, 91% of the Moon is Illuminated
Mar 13
Waxing Gibbous
Mar 16
Full
Mar 23
Last Quarter
Mar 30
New
Apr 7
First Quarter

Hourly Weather History & Observations

Time (CDT) Temp. Windchill Dew Point Humidity Pressure Visibility Wind Dir Wind Speed Gust Speed Precip Events Conditions
12:53 AM 37.0 °F 31.0 °F 23.0 °F 57% 30.18 in 10.0 mi WSW 8.1 mph - N/A   Clear
1:53 AM 34.0 °F 27.2 °F 23.0 °F 64% 30.17 in 10.0 mi WSW 8.1 mph - N/A   Clear
2:53 AM 34.0 °F 26.6 °F 23.0 °F 64% 30.16 in 10.0 mi WSW 9.2 mph - N/A   Clear
3:53 AM 33.1 °F 26.1 °F 21.9 °F 64% 30.14 in 10.0 mi West 8.1 mph - N/A   Clear
4:53 AM 35.1 °F 27.4 °F 21.9 °F 59% 30.13 in 10.0 mi West 10.4 mph - N/A   Clear
5:53 AM 36.0 °F 29.0 °F 21.0 °F 55% 30.14 in 10.0 mi West 9.2 mph - N/A   Partly Cloudy
6:53 AM 33.1 °F 27.7 °F 19.9 °F 59% 30.14 in 10.0 mi West 5.8 mph - N/A   Partly Cloudy
7:53 AM 32.0 °F 27.5 °F 19.9 °F 61% 30.15 in 10.0 mi West 4.6 mph - N/A   Clear
8:53 AM 37.0 °F 33.3 °F 23.0 °F 57% 30.15 in 10.0 mi SW 4.6 mph - N/A   Clear
9:53 AM 48.0 °F - 23.0 °F 37% 30.15 in 10.0 mi WSW 6.9 mph - N/A   Clear
10:53 AM 57.0 °F - 19.0 °F 23% 30.13 in 10.0 mi WSW 8.1 mph - N/A   Clear
11:53 AM 60.1 °F - 24.1 °F 25% 30.12 in 10.0 mi SSW 10.4 mph - N/A   Clear
12:53 PM 63.0 °F - 21.0 °F 20% 30.09 in 10.0 mi SW 11.5 mph - N/A   Clear
1:53 PM 66.9 °F - 19.0 °F 16% 30.05 in 10.0 mi South 20.7 mph 26.5 mph N/A   Clear
2:53 PM 68.0 °F - 17.1 °F 14% 30.00 in 10.0 mi SSW 20.7 mph 33.4 mph N/A   Partly Cloudy
3:53 PM 69.1 °F - 18.0 °F 14% 29.96 in 10.0 mi SSW 20.7 mph 31.1 mph N/A   Partly Cloudy
4:53 PM 70.0 °F - 16.0 °F 13% 29.92 in 10.0 mi SSW 23.0 mph 28.8 mph N/A   Partly Cloudy
5:53 PM 69.1 °F - 18.0 °F 14% 29.89 in 10.0 mi SSW 21.9 mph 26.5 mph N/A   Scattered Clouds
6:53 PM 64.9 °F - 17.1 °F 16% 29.88 in 10.0 mi South 18.4 mph - N/A   Scattered Clouds
7:53 PM 59.0 °F - 19.0 °F 21% 29.88 in 10.0 mi South 15.0 mph - N/A   Partly Cloudy
8:53 PM 55.0 °F - 21.0 °F 27% 29.87 in 10.0 mi South 15.0 mph - N/A   Partly Cloudy
9:53 PM 55.0 °F - 19.0 °F 24% 29.84 in 10.0 mi South 18.4 mph - N/A   Scattered Clouds
10:53 PM 53.1 °F - 19.9 °F 27% 29.83 in 10.0 mi South 19.6 mph - N/A   Scattered Clouds
11:53 PM 53.1 °F - 19.9 °F 27% 29.82 in 10.0 mi South 19.6 mph - N/A   Scattered Clouds